Find STARLINK-37892

NORAD ID: 799500930 Int'l Des: 2026-130H Constellation: starlink operational

Aktuelle Ansicht

3D-Globus wird geladen...

About STARLINK-37892

STARLINK-37892 (NORAD 799500930) is a starlink constellation satellite launched Jun 7, 2026

Über STARLINK-37892

Beschreibung wird geladen...

Nächste Überflüge

Passes for default location (London). Set your location on the main map for personalized predictions.

Höhenverlauf

Loading altitude history...

Zweizeiliger Elementsatz

1 99999C 2026130H 26163.05187500 .00468440 00000-0 714110-4 0 1630
2 99999 97.2798 182.7639 0010950 273.3419 132.7784 16.04086703 17
Epoch: 12. Juni 2026 • Age: 7 hours